Flag for U.S.A. Weather past 2 weeks in Chattanooga, Tennessee, U.S.A.

Now
69 °F

Clear.


Feels Like: 69 °F
Forecast: 67 / 90 °F
Wind: 3 mph from South

Location: Lovell Field

Current Time: Aug 29, 2014 at 6:36:25 AM

Latest Report: Aug 29, 2014 at 5:53 AM


Visibility: 10 mi

Pressure: 30.03 "Hg

Humidity: 87%

Dew point: 65 °F

Location of ChattanoogaLocation

Historic Weather in Chattanooga — Graph

°F

Chattanooga temperature yesterday

Maximum temperature yesterday: 92 °F (at 3:53 PM)
Minimum temperature yesterday: 67 °F (at 6:53 AM)
Average temperature yesterday: 79 °F

Past Weeks' High & Low Weather Summary

 TemperatureHumidityPressure
High94 °F (Aug 20, 4:53 PM)93% (Aug 19, 12:53 AM)30.16 "Hg (Aug 19, 12:53 AM)
Low62 °F (Aug 14, 4:53 AM)26% (Aug 27, 4:53 PM)29.84 "Hg (Aug 19, 5:53 PM)
Average78 °F69%30.00 "Hg
* Reported Aug 14 4:53 AM — Aug 29 4:53 AM, Chattanooga, Weather by CustomWeather, © 2014

Note: Actual official high and low records may vary slightly from our data, if they occured in-between our weather recording intervals... More about our weather records

Advertising

Chattanooga weather history for previous 24 hours

 ConditionsComfort  
Time TempWeatherWind HumidityBarometerVisibility
4:53 AM
Aug 29
70 °FClear.No wind84%30.01 "Hg10 mi
3:53 AM71 °FClear.No wind81%30.01 "Hg10 mi
2:53 AM72 °FClear.No wind81%30.01 "Hg10 mi
1:53 AM73 °FClear.No wind81%30.01 "Hg10 mi
12:53 AM75 °FClear.No wind76%30.01 "Hg10 mi
11:53 PM
Aug 28
76 °FClear.No wind74%30.00 "Hg10 mi
10:53 PM78 °FClear.No wind74%30.00 "Hg10 mi
9:53 PM79 °FPassing clouds.3 mph72%29.99 "Hg10 mi
8:53 PM82 °FScattered clouds.3 mph63%29.98 "Hg10 mi
7:53 PM88 °FScattered clouds.No wind43%29.96 "Hg10 mi
6:53 PM91 °FScattered clouds.5 mph39%29.95 "Hg10 mi
5:53 PM90 °FScattered clouds.6 mph41%29.95 "Hg10 mi
4:53 PM92 °FScattered clouds.No wind37%29.96 "Hg10 mi
3:53 PM92 °FScattered clouds.6 mph41%29.97 "Hg10 mi
2:53 PM91 °FScattered clouds.6 mph41%29.99 "Hg10 mi
1:53 PM89 °FPassing clouds.3 mph43%30.01 "Hg10 mi
12:53 PM87 °FPassing clouds.No wind45%30.03 "Hg10 mi
11:53 AM86 °FPassing clouds.3 mph48%30.05 "Hg10 mi
10:53 AM81 °FPassing clouds.No wind56%30.06 "Hg10 mi
9:53 AM76 °FPassing clouds.No wind69%30.06 "Hg10 mi
8:53 AM72 °FPassing clouds.No wind76%30.06 "Hg10 mi
7:53 AM68 °FPassing clouds.No wind84%30.05 "Hg10 mi
6:53 AM67 °FPassing clouds.No wind87%30.03 "Hg10 mi
Weather by CustomWeather, © 2014

See weather overviewHow to use our weather pages